Terminal Aerodrome Forecast
Issued by NWS Flagstaff, AZ

Home | Current Version | Previous Version | Text Only | Print | Product List | Glossary On
Versions: 1 2 3 4 5 6 7 8 9 10 11 12
000
FTUS45 KFGZ 272300
TAFINW
TAF
KINW 272324Z 2800/2824 VRB06KT P6SM BKN050
     FM280200 VRB04KT P6SM SCT040 SCT250
     FM280600 VRB05KT P6SM SCT250
     FM281300 VRB03KT 4SM BR SCT250
     FM281600 VRB05KT P6SM SCT250=

USA.gov is the U.S. government's official web portal to all federal, state and local government web resources and services.